Location: Kumla
(59.1265°N, 15.1401°E)
Time: 23:23:59
(UTC+01:00)

Vanguard 1 - Pass Details

Date: 04 December 2023
Orbit: 653 x 3825 km, 34.3° (Epoch: 04 March)

Event Time Altitude Azimuth Distance (km) Brightness Sun altitude
Rises 19:52:42 0° 238° (WSW) 6,522 14.8 -34.6°
Reaches altitude 10° 19:57:12 10° 230° (SW) 5,894 14.3 -35.2°
Maximum altitude 20:13:22 33° 175° (S) 5,068 13.3 -37.2°
Enters shadow 20:17:23 32° 160° (SSE) 5,250 13.3 -37.6°
